Starlink 32789

operational
NORAD ID: 62529 Int'l Des: 2025-004 Owner: SPXS Country: US Constellation: starlink
LEOCIRCULAR

About Starlink 32789

Description loading...

Live Position

Loading 3D Globe...

Upcoming Passes

Altitude History

Altitude vs Time

uPlot chart will show altitude changes over time

Two-Line Element Set

1 62529U 25004U 25353.89409624 .00005732 00000-0 21763-3 0 9994
2 62529 42.9981 310.6206 0001098 266.0514 94.0212 15.27581821 54253
Epoch: Dec 19, 2025 • Age: 7 hours

Current Status

Altitude 488.3 km
Velocity 7.62 km/s
Sub-Earth Point -23.89°S, 2.07°W
Launch Date Jan 8, 2025
Age 0.9 years
Type internet

Technical Details

Classification Payload
Mass 730.00 kg
Dry Mass 700.00 kg
Total Mass 730.00 kg
Length 0.30 m
Diameter 4.10 m
Span 29.00 m
Shape Box + pan
Manufacturer SPXS
Bus Type Starlink V2M
Phase Status In Orbit
Owner/State SPXS/US

Large Constellations

Loading constellations...